Time,TemperatureF,DewpointF,PressureIn,WindDirection,WindDirectionDegrees,WindSpeedMPH,WindSpeedGustMPH,Humidity,HourlyPrecipIn,Conditions,Clouds,dailyrainin,SolarRadiationWatts/m^2,SoftwareType,DateUTC
2013-02-19 00:21:00,31.0,31.0,-100.00,West,261,0.0,0.0,100,0.00,,,0.05,0.000000,,2013-02-19 09:21:00,
2013-02-19 00:31:00,31.0,31.0,-100.00,West,261,0.0,0.0,100,0.00,,,0.05,0.000000,,2013-02-19 09:31:00,
2013-02-19 00:41:00,31.0,31.0,-100.00,West,261,0.0,0.0,100,0.00,,,0.05,0.000000,,2013-02-19 09:41:00,
2013-02-19 00:52:00,31.0,31.0,-100.00,West,261,0.0,0.0,100,0.00,,,0.05,0.000000,,2013-02-19 09:52:00,
2013-02-19 01:21:00,31.0,31.0,-100.00,SSE,166,0.0,0.0,100,0.00,,,0.04,0.000000,,2013-02-19 10:21:00,
2013-02-19 01:31:00,31.0,31.0,-100.00,SSE,166,0.0,0.0,100,0.00,,,0.04,0.000000,,2013-02-19 10:31:00,
2013-02-19 01:41:00,31.0,31.0,-100.00,SSE,166,0.0,0.0,100,0.00,,,0.04,0.000000,,2013-02-19 10:41:00,
2013-02-19 01:51:00,31.0,31.0,-100.00,SSE,166,0.0,0.0,100,0.00,,,0.04,0.000000,,2013-02-19 10:51:00,
2013-02-19 02:21:00,31.0,31.0,-100.00,SSW,203,0.0,2.0,100,0.00,,,0.04,0.000000,,2013-02-19 11:21:00,
2013-02-19 02:32:00,31.0,31.0,-100.00,SSW,203,0.0,2.0,100,0.00,,,0.04,0.000000,,2013-02-19 11:32:00,
2013-02-19 02:42:00,31.0,31.0,-100.00,SSW,203,0.0,2.0,100,0.00,,,0.04,0.000000,,2013-02-19 11:42:00,
2013-02-19 02:52:00,31.0,31.0,-100.00,SSW,203,0.0,2.0,100,0.00,,,0.04,0.000000,,2013-02-19 11:52:00,
2013-02-19 03:22:00,32.0,32.0,-100.00,NNE,15,0.0,3.0,100,0.00,,,0.04,0.000000,,2013-02-19 12:22:00,
2013-02-19 03:32:00,32.0,32.0,-100.00,NNE,15,0.0,3.0,100,0.00,,,0.04,0.000000,,2013-02-19 12:32:00,
2013-02-19 03:42:00,32.0,32.0,-100.00,NNE,15,0.0,3.0,100,0.00,,,0.04,0.000000,,2013-02-19 12:42:00,
2013-02-19 03:52:00,32.0,32.0,-100.00,NNE,15,0.0,3.0,100,0.00,,,0.04,0.000000,,2013-02-19 12:52:00,
2013-02-19 04:22:00,33.0,33.0,-100.00,South,174,1.0,4.0,100,0.00,,,0.04,0.000000,,2013-02-19 13:22:00,
2013-02-19 04:32:00,33.0,33.0,-100.00,South,174,1.0,4.0,100,0.00,,,0.04,0.000000,,2013-02-19 13:32:00,
2013-02-19 04:41:00,33.0,33.0,-100.00,South,174,1.0,4.0,100,0.00,,,0.04,0.000000,,2013-02-19 13:41:00,
2013-02-19 04:52:00,33.0,33.0,-100.00,South,174,1.0,4.0,100,0.00,,,0.04,0.000000,,2013-02-19 13:52:00,
2013-02-19 05:21:00,32.0,32.0,-100.00,West,275,0.0,3.0,100,0.00,,,0.04,0.000000,,2013-02-19 14:21:00,
2013-02-19 05:32:00,32.0,32.0,-100.00,West,275,0.0,3.0,100,0.00,,,0.04,0.000000,,2013-02-19 14:32:00,
2013-02-19 05:41:00,32.0,32.0,-100.00,West,275,0.0,3.0,100,0.00,,,0.04,0.000000,,2013-02-19 14:41:00,
2013-02-19 05:52:00,32.0,32.0,-100.00,West,275,0.0,3.0,100,0.00,,,0.04,0.000000,,2013-02-19 14:52:00,
2013-02-19 06:21:00,32.0,32.0,-100.00,SSW,211,1.0,3.0,100,0.00,,,0.04,0.000000,,2013-02-19 15:21:00,
2013-02-19 06:31:00,32.0,32.0,-100.00,SSW,211,1.0,3.0,100,0.00,,,0.04,0.000000,,2013-02-19 15:31:00,
2013-02-19 06:42:00,32.0,32.0,-100.00,SSW,211,1.0,3.0,100,0.00,,,0.04,0.000000,,2013-02-19 15:42:00,
2013-02-19 06:52:00,32.0,32.0,-100.00,SSW,211,1.0,3.0,100,0.00,,,0.04,0.000000,,2013-02-19 15:52:00,
2013-02-19 07:21:00,33.0,33.0,-100.00,SE,143,1.0,4.0,100,0.00,,,0.04,0.000000,,2013-02-19 16:21:00,
2013-02-19 07:32:00,33.0,33.0,-100.00,SE,143,1.0,4.0,100,0.00,,,0.04,0.000000,,2013-02-19 16:32:00,
2013-02-19 07:41:00,33.0,33.0,-100.00,SE,143,1.0,4.0,100,0.00,,,0.04,0.000000,,2013-02-19 16:41:00,
2013-02-19 07:51:00,33.0,33.0,-100.00,SE,143,1.0,4.0,100,0.00,,,0.04,0.000000,,2013-02-19 16:51:00,
2013-02-19 08:21:00,33.0,33.0,-100.00,SSW,194,1.0,4.0,100,0.00,,,0.03,18.000000,,2013-02-19 17:21:00,
2013-02-19 08:32:00,33.0,33.0,-100.00,SSW,194,1.0,4.0,100,0.00,,,0.03,18.000000,,2013-02-19 17:32:00,
2013-02-19 08:41:00,33.0,33.0,-100.00,SSW,194,1.0,4.0,100,0.00,,,0.03,18.000000,,2013-02-19 17:41:00,
2013-02-19 08:51:00,33.0,33.0,-100.00,SSW,194,1.0,4.0,100,0.00,,,0.03,18.000000,,2013-02-19 17:51:00,
2013-02-19 09:21:00,34.0,34.0,-100.00,SSE,163,4.0,9.0,100,0.01,,,0.04,59.000000,,2013-02-19 18:21:00,
2013-02-19 09:31:00,34.0,34.0,-100.00,SSE,163,4.0,9.0,100,0.01,,,0.04,59.000000,,2013-02-19 18:31:00,
2013-02-19 09:41:00,34.0,34.0,-100.00,SSE,163,4.0,9.0,100,0.01,,,0.04,59.000000,,2013-02-19 18:41:00,
2013-02-19 09:51:00,34.0,34.0,-100.00,SSE,163,4.0,9.0,100,0.01,,,0.04,59.000000,,2013-02-19 18:51:00,
2013-02-19 10:21:00,35.0,35.0,-100.00,SSE,149,3.0,10.0,100,0.00,,,0.04,82.000000,,2013-02-19 19:21:00,
2013-02-19 10:31:00,35.0,35.0,-100.00,SSE,149,3.0,10.0,100,0.00,,,0.04,82.000000,,2013-02-19 19:31:00,
2013-02-19 10:41:00,35.0,35.0,-100.00,SSE,149,3.0,10.0,100,0.00,,,0.04,82.000000,,2013-02-19 19:41:00,
2013-02-19 10:51:00,35.0,35.0,-100.00,SSE,149,3.0,10.0,100,0.00,,,0.04,82.000000,,2013-02-19 19:51:00,
2013-02-19 11:21:00,36.0,36.0,-100.00,SE,143,4.0,9.0,99,0.00,,,0.03,142.000000,,2013-02-19 20:21:00,
2013-02-19 11:32:00,36.0,36.0,-100.00,SE,143,4.0,9.0,99,0.00,,,0.03,142.000000,,2013-02-19 20:32:00,
2013-02-19 11:41:00,36.0,36.0,-100.00,SE,143,4.0,9.0,99,0.00,,,0.03,142.000000,,2013-02-19 20:41:00,
2013-02-19 11:52:00,36.0,36.0,-100.00,SE,143,4.0,9.0,99,0.00,,,0.03,142.000000,,2013-02-19 20:52:00,
2013-02-19 12:21:00,38.0,36.0,-100.00,SE,138,5.0,11.0,94,0.00,,,0.02,196.000000,,2013-02-19 21:21:00,
2013-02-19 12:32:00,38.0,36.0,-100.00,SE,138,5.0,11.0,94,0.00,,,0.02,196.000000,,2013-02-19 21:32:00,
2013-02-19 12:42:00,38.0,36.0,-100.00,SE,138,5.0,11.0,94,0.00,,,0.02,196.000000,,2013-02-19 21:42:00,
2013-02-19 12:51:00,38.0,36.0,-100.00,SE,138,5.0,11.0,94,0.00,,,0.02,196.000000,,2013-02-19 21:51:00,
2013-02-19 13:21:00,38.0,35.0,-100.00,ESE,123,6.0,12.0,88,0.00,,,0.02,196.000000,,2013-02-19 22:21:00,
2013-02-19 13:32:00,38.0,35.0,-100.00,ESE,123,6.0,12.0,88,0.00,,,0.02,196.000000,,2013-02-19 22:32:00,
2013-02-19 13:41:00,38.0,35.0,-100.00,ESE,123,6.0,12.0,88,0.00,,,0.02,196.000000,,2013-02-19 22:41:00,
2013-02-19 13:51:00,38.0,35.0,-100.00,ESE,123,6.0,12.0,88,0.00,,,0.02,196.000000,,2013-02-19 22:51:00,
2013-02-19 14:21:00,39.0,35.0,-100.00,SE,128,7.0,13.0,87,0.00,,,0.02,129.000000,,2013-02-19 23:21:00,
2013-02-19 14:32:00,39.0,35.0,-100.00,SE,128,7.0,13.0,87,0.00,,,0.02,129.000000,,2013-02-19 23:32:00,
2013-02-19 14:41:00,39.0,35.0,-100.00,SE,128,7.0,13.0,87,0.00,,,0.02,129.000000,,2013-02-19 23:41:00,
2013-02-19 14:52:00,39.0,35.0,-100.00,SE,128,7.0,13.0,87,0.00,,,0.02,129.000000,,2013-02-19 23:52:00,
2013-02-19 15:21:00,39.0,35.0,-100.00,SE,132,7.0,12.0,86,0.00,,,0.02,127.000000,,2013-02-20 00:21:00,
2013-02-19 15:31:00,39.0,35.0,-100.00,SE,132,7.0,12.0,86,0.00,,,0.02,127.000000,,2013-02-20 00:31:00,
2013-02-19 15:41:00,39.0,35.0,-100.00,SE,132,7.0,12.0,86,0.00,,,0.02,127.000000,,2013-02-20 00:41:00,
2013-02-19 15:51:00,39.0,35.0,-100.00,SE,132,7.0,12.0,86,0.00,,,0.02,127.000000,,2013-02-20 00:51:00,
2013-02-19 16:21:00,38.0,35.0,-100.00,SE,132,6.0,13.0,89,0.00,,,0.02,67.000000,,2013-02-20 01:21:00,
2013-02-19 16:31:00,38.0,35.0,-100.00,SE,132,6.0,13.0,89,0.00,,,0.02,67.000000,,2013-02-20 01:31:00,
2013-02-19 16:41:00,38.0,35.0,-100.00,SE,132,6.0,13.0,89,0.00,,,0.02,67.000000,,2013-02-20 01:41:00,
2013-02-19 16:51:00,38.0,35.0,-100.00,SE,132,6.0,13.0,89,0.00,,,0.02,67.000000,,2013-02-20 01:51:00,
2013-02-19 17:21:00,37.0,35.0,-100.00,SSE,148,5.0,11.0,94,0.00,,,0.01,14.000000,,2013-02-20 02:21:00,
2013-02-19 17:31:00,37.0,35.0,-100.00,SSE,148,5.0,11.0,94,0.00,,,0.01,14.000000,,2013-02-20 02:31:00,
2013-02-19 17:41:00,37.0,35.0,-100.00,SSE,148,5.0,11.0,94,0.00,,,0.01,14.000000,,2013-02-20 02:41:00,
2013-02-19 17:52:00,37.0,35.0,-100.00,SSE,148,5.0,11.0,94,0.00,,,0.01,14.000000,,2013-02-20 02:52:00,
2013-02-19 18:21:00,36.0,35.0,-100.00,SE,146,4.0,12.0,96,0.01,,,0.02,0.000000,,2013-02-20 03:21:00,
2013-02-19 18:32:00,36.0,35.0,-100.00,SE,146,4.0,12.0,96,0.01,,,0.02,0.000000,,2013-02-20 03:32:00,
2013-02-19 18:41:00,36.0,35.0,-100.00,SE,146,4.0,12.0,96,0.01,,,0.02,0.000000,,2013-02-20 03:41:00,
2013-02-19 18:51:00,36.0,35.0,-100.00,SE,146,4.0,12.0,96,0.01,,,0.02,0.000000,,2013-02-20 03:51:00,
2013-02-19 19:21:00,35.0,34.0,-100.00,SSE,147,5.0,11.0,98,0.00,,,0.02,0.000000,,2013-02-20 04:21:00,
2013-02-19 19:31:00,35.0,34.0,-100.00,SSE,147,5.0,11.0,98,0.00,,,0.02,0.000000,,2013-02-20 04:31:00,
2013-02-19 19:41:00,35.0,34.0,-100.00,SSE,147,5.0,11.0,98,0.00,,,0.02,0.000000,,2013-02-20 04:41:00,
2013-02-19 19:51:00,35.0,34.0,-100.00,SSE,147,5.0,11.0,98,0.00,,,0.02,0.000000,,2013-02-20 04:51:00,
2013-02-19 20:22:00,35.0,34.0,-100.00,SE,136,5.0,11.0,98,0.00,,,0.02,0.000000,,2013-02-20 05:22:00,
2013-02-19 20:32:00,35.0,34.0,-100.00,SE,136,5.0,11.0,98,0.00,,,0.02,0.000000,,2013-02-20 05:32:00,
2013-02-19 20:43:00,35.0,34.0,-100.00,SE,136,5.0,11.0,98,0.00,,,0.02,0.000000,,2013-02-20 05:43:00,
2013-02-19 20:52:00,35.0,34.0,-100.00,SE,136,5.0,11.0,98,0.00,,,0.02,0.000000,,2013-02-20 05:52:00,
2013-02-19 21:21:00,35.0,35.0,-100.00,SE,124,7.0,14.0,100,0.00,,,-99.99,0.000000,,2013-02-20 06:21:00,
2013-02-19 21:31:00,35.0,35.0,-100.00,SE,124,7.0,14.0,100,0.00,,,-99.99,0.000000,,2013-02-20 06:31:00,
2013-02-19 21:42:00,35.0,35.0,-100.00,SE,124,7.0,14.0,100,0.00,,,-99.99,0.000000,,2013-02-20 06:42:00,
2013-02-19 21:51:00,35.0,35.0,-100.00,SE,124,7.0,14.0,100,0.00,,,-99.99,0.000000,,2013-02-20 06:51:00,
2013-02-19 22:21:00,35.0,35.0,-100.00,SE,143,7.0,14.0,99,0.00,,,0.02,0.000000,,2013-02-20 07:21:00,
2013-02-19 22:31:00,35.0,35.0,-100.00,SE,143,7.0,14.0,99,0.00,,,0.02,0.000000,,2013-02-20 07:31:00,
2013-02-19 22:41:00,35.0,35.0,-100.00,SE,143,7.0,14.0,99,0.00,,,0.02,0.000000,,2013-02-20 07:41:00,
2013-02-19 22:51:00,35.0,35.0,-100.00,SE,143,7.0,14.0,99,0.00,,,0.02,0.000000,,2013-02-20 07:51:00,
2013-02-19 23:21:00,35.0,34.0,-100.00,SE,134,5.0,14.0,98,0.00,,,0.02,0.000000,,2013-02-20 08:21:00,
2013-02-19 23:31:00,35.0,34.0,-100.00,SE,134,5.0,14.0,98,0.00,,,0.02,0.000000,,2013-02-20 08:31:00,
2013-02-19 23:41:00,35.0,34.0,-100.00,SE,134,5.0,14.0,98,0.00,,,0.02,0.000000,,2013-02-20 08:41:00,
2013-02-19 23:52:00,35.0,34.0,-100.00,SE,134,5.0,14.0,98,0.00,,,0.02,0.000000,,2013-02-20 08:52:00,